This is the latest recevied weather packets stored in our database for station/object OK2ZAW-23. If no packets are shown the sender has not sent any weather packets the latest 10 day(s).
| Time | Temp. | Humidity | Pressure | Rain* | Wind** | Luminosity | Snow |
|---|---|---|---|---|---|---|---|
| 1777210773 | 12.78° C | 34% | 1019.7 hPa | - | - | 335 W/m² | - |
| 1777208892 | 11.67° C | 38% | 1019.6 hPa | - | - | 335 W/m² | - |
| 1777208266 | 11.11° C | 38% | 1019.8 hPa | - | - | 335 W/m² | - |
| 1777207325 | 10.56° C | 39% | 1019.8 hPa | - | - | 335 W/m² | - |
| 1777206700 | 10.56° C | 41% | 1019.9 hPa | - | - | 336 W/m² | - |
| 1777205759 | 10.56° C | 41% | 1020 hPa | - | - | 335 W/m² | - |
| 1777205446 | 10° C | 41% | 1019.8 hPa | - | - | 335 W/m² | - |
| 1777205133 | 9.44° C | 41% | 1019.9 hPa | - | - | 335 W/m² | - |
| 1777204819 | 9.44° C | 41% | 1019.9 hPa | - | - | 335 W/m² | - |
| 1777204506 | 9.44° C | 41% | 1019.8 hPa | - | - | 335 W/m² | - |
| 1777203566 | 9.44° C | 43% | 1019.7 hPa | - | - | 335 W/m² | - |
| 1777203253 | 8.89° C | 42% | 1019.8 hPa | - | - | 335 W/m² | - |
| 1777202941 | 8.89° C | 43% | 1019.8 hPa | - | - | 335 W/m² | - |
| 1777202627 | 9.44° C | 42% | 1019.8 hPa | - | - | 335 W/m² | - |
| 1777202314 | 8.89° C | 42% | 1019.9 hPa | - | - | 335 W/m² | - |
| 1777201687 | 9.44° C | 41% | 1019.7 hPa | - | - | 335 W/m² | - |
| 1777201061 | 9.44° C | 44% | 1019.8 hPa | - | - | 335 W/m² | - |
| 1777200748 | 8.89° C | 45% | 1019.7 hPa | - | - | 335 W/m² | - |
| 1777199809 | 8.89° C | 47% | 1019.7 hPa | - | - | 335 W/m² | - |
| 1777199182 | 8.33° C | 47% | 1019.8 hPa | - | - | 335 W/m² | - |
| 1777197929 | 8.89° C | 47% | 1019.5 hPa | - | - | 335 W/m² | - |
| 1777195425 | 8.33° C | 49% | 1019.3 hPa | - | - | 335 W/m² | - |
| 1777195111 | 7.78° C | 49% | 1019.3 hPa | - | - | 335 W/m² | - |
| 1777194798 | 7.78° C | 49% | 1019.2 hPa | - | - | 335 W/m² | - |
| 1777194485 | 7.78° C | 49% | 1019.4 hPa | - | - | 335 W/m² | - |
* Rain since midnight (hover to see other rain measurements)
** Current wind speed in m/s (hover to see current wind gust speed)